Location: High Point State Park
(41.2941°N, 74.6906°W)
Time: 07:39:34
(UTC-04:00)

Hubble Space Telescope - Visible Passes

Search period start: 18 April 2015 00:00
Search period end: 28 April 2015 00:00
Orbit: 543 x 546 km, 28.5° (Epoch: 17 April)

Date Brightness Start Highest point End Pass type
(mag) Time Alt. Az. Time Alt. Az. Time Alt. Az.
18 Apr 2.9 05:15:08 10° SSW 05:17:10 14° S 05:19:17 10° SE visible
19 Apr 2.8 05:07:01 12° SSW 05:08:33 14° S 05:10:44 10° SSE visible
20 Apr 2.8 04:58:57 13° SSW 04:59:55 14° S 05:02:05 10° SSE visible
21 Apr 2.8 04:50:55 13° S 04:51:16 13° S 04:53:20 10° SSE visible
22 Apr 2.9 04:42:56 13° S 04:42:56 13° S 04:44:29 10° SSE visible
23 Apr 3.1 04:35:03 11° S 04:35:03 11° S 04:35:27 10° SSE visible
